User: anonymous   Login
Location: ??????
(30.5519°N, 47.7720°E)
Time: 03:49:41
(UTC+00:00)
Language:

BREEZE-M DEB (TANK) - Orbit

View from above orbital plane
View from above orbital plane
View from above satellite
View from above satellite

Ground track
Ground track

The orbit data is extracted from the following two-line orbital elements,

1 38089U 12007C   21107.42968458  .00001260  00000-0  28592-3 0  9993
2 38089  49.5786 183.4432 5035080 193.9408 144.3555  5.53682152183195
Epoch (UTC): 17 April 2021 10:18:44
Eccentricity: 0.5035080
inclination: 49.5786°
perigee height: 323 km
apogee height: 13914 km
right ascension of ascending node: 183.4432°
argument of perigee: 193.9408°
revolutions per day: 5.53682152
mean anomaly at epoch: 144.3555°
orbit number at epoch: 18319

The dashed part of the orbit path shows where the satellite is in the earth's shadow,  

DLR